GFSGL_sfc_rhum_159.txt.gz
RH
48 55 53 51 50 54 52 52 57 55 64 52 58 56 67 62 60 65 64 63 82 62 56 57 57 58 45 37 32 33 33 33 37 32 55 65 60 58 54 56 66 58 69
50 60 56 60 51 47 53 52 58 63 55 58 57 60 58 56 58 63 60 50 54 56 54 63 55 42 76 64 45 61 45 47 43 68 54 42 66 62 62 71 56 42 63
52 55 54 57 60 48 50 52 57 61 60 51 59 63 61 57 59 62 62 59 55 55 54 60 75 56 75 52 64 54 54 48 66 74 58 48 75 69 71 70 70 67 60
63 51 60 50 57 58 50 54 52 61 62 61 58 59 59 57 57 55 56 58 60 60 57 59 79 57 65 72 68 74 64 62 64 63 58 51 53 68 82 90 91 85 87
77 71 72 62 63 68 77 65 56 59 60 60 62 62 58 52 43 60 59 57 60 60 59 64 68 64 84 82 67 77 84 84 91 84 83 88 92 92 91 94 93 88 92
77 67 71 68 72 67 70 74 73 72 68 70 63 64 64 48 60 71 63 53 60 72 64 62 62 68 69 80 85 86 84 85 86 78 92 85 89 86 95 95 95 94 83
83 81 76 79 73 74 72 75 80 81 81 76 68 66 67 65 75 80 85 48 53 68 68 74 58 42 67 60 86 92 96 95 96 86 85 86 90 89 87 89 90 91 91
90 94 86 76 75 71 73 76 81 88 86 86 81 75 73 63 90 89 88 63 60 64 64 66 69 67 67 75 66 69 69 73 92 96 88 88 81 84 81 79 87 88 88
95 96 86 87 72 71 75 76 82 86 88 87 83 81 81 82 100 100 96 70 62 69 67 68 68 70 94 100 80 80 74 87 94 93 92 91 92 92 90 96 98 98 96
94 93 95 93 84 79 79 79 86 80 86 96 97 91 96 87 100 99 97 65 64 52 71 79 96 90 99 100 86 87 93 90 95 91 90 94 92 87 87 87 82 81 96
74 86 96 97 95 93 91 90 84 85 94 96 94 95 91 93 91 99 99 79 67 70 70 90 87 95 97 100 99 80 90 89 95 92 93 92 89 87 91 92 91 96 97
69 75 82 93 93 91 85 85 90 94 93 98 99 99 97 94 99 99 100 99 98 88 92 97 97 98 100 100 94 97 95 87 84 87 89 93 96 97 98 99 98 97 96
85 89 94 94 95 93 96 97 98 97 98 99 98 99 100 99 99 100 100 100 99 99 89 94 96 98 97 94 97 95 91 82 92 96 98 98 98 97 98 97 96 95 97
91 89 89 92 86 84 78 81 82 86 85 88 84 82 91 96 96 96 96 96 98 97 98 99 100 99 100 100 99 99 99 98 98 99 99 99 98 98 98 98 98 97 96
94 80 75 70 76 80 76 72 67 78 80 80 76 76 80 81 80 99 99 99 99 100 99 98 99 99 99 99 99 99 99 99 99 99 99 99 99 98 92 91 75 92 84
96 84 68 62 62 64 74 73 98 95 99 99 100 84 77 94 100 100 100 100 100 100 82 84 88 90 94 96 98 98 93 92 96 97 97 97 92 75 72 71 73 59 47
85 78 62 64 58 67 68 69 71 84 99 100 100 100 99 99 100 100 100 100 100 95 77 81 80 78 86 85 81 78 83 82 87 85 80 73 66 67 70 53 55 56 53
76 88 71 66 64 66 65 62 62 65 66 67 93 90 99 100 100 100 100 96 74 80 77 81 80 77 74 71 70 69 78 80 80 75 68 61 57 47 47 43 40 42 42
72 65 64 61 61 63 65 58 58 64 67 66 68 85 89 100 100 100 99 67 68 68 63 67 67 64 64 59 59 57 59 53 52 49 46 45 42 39 39 34 36 60 54
68 85 81 62 56 55 53 48 56 55 60 64 62 48 54 70 60 56 56 49 44 40 41 42 42 44 47 48 49 49 48 47 49 44 39 38 38 34 31 31 29 32 33
42 52 64 51 54 42 33 32 33 29 27 28 28 49 81 46 34 35 35 36 33 33 36 34 38 38 40 42 41 37 34 33 35 34 33 35 34 29 33 30 27 27 27
30 34 34 29 30 33 30 29 28 27 27 26 26 34 73 36 26 30 33 34 33 36 35 39 35 34 32 34 35 30 28 28 28 28 29 28 30 28 27 28 27 27 28
24 27 28 28 29 45 30 26 25 25 25 25 24 26 27 26 24 26 28 28 32 33 33 34 36 33 34 31 29 28 26 25 26 26 27 28 28 28 28 28 28 27 28
22 23 26 27 30 28 27 28 27 39 29 24 25 25 27 27 26 26 26 27 29 30 31 32 32 32 36 32 28 27 26 27 28 28 29 28 28 33 28 28 26 28 28
25 25 26 26 26 27 28 27 26 26 26 24 24 24 24 26 28 27 26 25 27 28 29 29 29 31 34 35 29 29 57 57 43 72 32 30 32 32 31 29 29 30 29
24 24 26 26 27 27 27 27 27 27 26 26 25 26 26 27 27 28 34 34 28 26 27 26 28 30 31 31 32 58 78 66 49 79 44 34 35 40 35 34 33 32 41

GFSGL_sfc_rhum_162.txt.gz
RH
62 64 64 64 67 72 80 75 74 74 83 80 81 90 82 74 77 81 78 79 75 84 82 84 85 89 71 69 70 72 72 69 76 73 75 83 79 74 80 85 86 80 86
61 68 65 65 64 63 68 74 74 78 90 88 80 81 77 71 78 86 76 69 77 80 79 78 76 58 80 78 73 80 79 80 83 80 76 76 80 77 79 84 71 65 75
60 62 60 63 63 61 65 64 72 76 79 74 79 79 77 78 80 78 81 77 76 73 73 75 77 77 83 82 84 79 78 89 92 90 85 78 83 82 84 84 85 93 90
72 61 64 67 61 60 67 67 65 76 78 77 78 78 79 78 78 75 77 79 78 71 74 76 77 78 81 86 83 85 76 84 85 87 87 86 86 86 90 93 94 94 97
75 82 87 85 84 75 74 79 68 75 75 73 74 76 77 70 58 78 77 81 82 77 75 75 72 80 84 86 86 88 90 88 92 92 96 95 95 94 92 92 94 93 97
81 80 94 97 93 90 86 81 78 77 77 79 76 75 75 56 63 74 78 71 81 82 84 81 79 81 82 79 85 83 84 90 89 96 89 94 93 95 93 95 96 97 97
86 80 86 93 97 93 90 82 84 83 83 83 79 79 80 78 81 81 81 67 79 85 82 87 76 54 74 79 85 91 94 97 94 93 95 94 93 94 93 92 94 94 96
93 94 95 96 90 83 82 85 87 89 89 90 88 84 84 86 100 98 91 74 73 78 79 82 84 79 77 85 81 82 83 88 97 97 94 96 97 98 98 98 98 96 99
95 97 98 98 97 98 96 88 87 90 89 90 90 89 89 89 99 99 99 89 88 86 82 82 80 82 95 98 92 88 86 94 92 93 93 91 90 91 94 99 98 99 99
84 86 96 97 98 98 98 93 88 91 91 90 95 96 98 99 99 99 99 99 93 93 89 88 99 95 100 100 96 93 94 93 97 97 97 96 93 95 93 97 99 99 99
76 81 90 93 94 95 96 98 94 87 87 91 96 97 96 98 96 98 99 97 84 96 96 97 96 97 97 100 100 91 99 98 97 96 98 97 95 94 97 97 97 98 99
73 79 86 92 97 97 95 97 92 93 96 98 98 98 98 98 100 99 99 99 99 96 98 98 99 99 100 100 98 97 95 90 86 87 97 97 96 98 99 99 99 99 99
85 89 92 91 92 97 96 98 98 98 98 99 99 98 98 98 99 100 100 100 100 99 95 97 98 98 96 94 96 97 94 95 97 98 99 100 99 98 98 98 97 98 98
85 88 89 92 90 94 98 98 99 99 97 94 99 97 85 86 93 96 98 95 97 97 98 99 100 99 100 100 99 99 99 99 99 99 99 99 99 99 99 99 98 97 97
90 85 82 78 80 85 84 85 81 87 88 87 86 86 87 85 87 97 99 98 98 99 98 98 98 98 99 99 98 98 99 99 99 99 99 99 99 98 96 88 84 86 85
96 82 81 80 70 72 81 83 98 97 99 100 100 86 90 97 100 100 100 100 100 100 89 87 91 92 95 94 96 98 96 92 95 97 97 97 96 86 84 82 84 83 81
87 81 80 80 77 80 76 75 79 91 100 100 100 100 97 100 100 100 100 100 100 98 87 87 88 88 89 88 86 86 88 87 89 88 90 84 82 81 80 77 75 77 74
78 88 68 66 70 81 78 76 72 74 75 77 95 92 100 100 100 100 100 98 84 89 82 87 87 85 84 80 83 80 82 85 86 86 83 82 80 75 74 73 72 72 71
72 72 76 69 69 69 76 66 64 71 74 79 82 91 95 100 100 100 100 82 73 71 72 75 79 78 80 81 79 82 82 82 82 81 77 73 69 68 70 63 61 64 65
68 80 75 68 59 59 62 66 74 73 72 71 66 63 72 80 74 74 76 75 72 68 69 74 75 76 76 75 79 77 75 73 75 73 71 68 67 64 59 54 54 58 62
59 60 69 59 60 52 54 52 56 56 57 57 51 60 70 66 60 58 56 56 52 51 57 60 66 69 68 70 72 67 62 56 65 65 60 59 62 55 56 54 48 48 49
55 44 48 51 51 55 41 35 34 33 32 34 37 47 64 43 43 46 51 50 48 54 51 63 55 53 53 59 60 54 48 49 51 51 53 53 55 51 51 49 48 50 49
28 30 32 33 36 47 36 32 30 30 29 30 30 29 30 34 36 38 43 42 50 52 53 53 56 53 57 51 50 51 48 45 49 46 47 47 49 50 48 48 47 48 50
28 25 28 30 37 33 31 35 33 40 32 28 30 34 35 35 34 38 37 40 44 45 47 50 49 45 55 50 48 44 45 47 46 45 48 47 48 47 44 47 43 45 44
33 25 26 30 33 32 35 29 32 33 31 30 29 31 31 35 36 34 34 37 40 43 42 44 46 44 45 48 44 43 67 66 58 73 50 48 48 51 49 48 50 45 48
26 28 29 30 32 33 32 33 33 34 33 33 34 35 36 36 35 37 42 41 41 40 42 41 39 41 43 40 41 63 77 70 58 73 58 57 54 53 53 55 53 53 51

GFSGL_sfc_rhum_165.txt.gz
RH
83 74 72 79 80 84 92 90 86 87 82 84 85 87 82 89 86 84 82 84 83 82 77 86 85 82 76 82 83 81 83 85 88 78 82 88 89 89 88 96 92 91 93
68 87 72 71 74 79 79 90 88 93 90 88 90 86 75 75 88 88 81 74 84 84 77 73 87 75 84 81 85 88 90 94 88 86 87 83 84 90 91 98 97 92 98
81 76 84 73 74 73 74 75 87 90 91 78 78 93 81 79 90 90 86 84 88 88 86 87 85 84 88 90 88 88 93 94 93 94 93 83 91 91 95 95 98 98 95
82 85 83 88 82 73 70 70 71 80 90 87 89 84 91 89 89 86 89 90 89 85 84 84 85 87 89 87 88 90 89 93 93 95 96 96 94 92 93 95 96 99 99
86 89 93 90 91 89 92 85 77 89 85 83 84 91 88 87 74 86 86 90 91 88 86 84 80 85 86 88 92 91 91 95 97 98 97 97 97 96 93 94 96 99 99
91 94 94 95 96 98 97 97 94 95 94 91 90 88 90 67 76 80 88 94 92 92 90 87 85 86 86 90 89 86 90 94 94 98 98 98 96 96 96 95 96 97 99
94 96 98 99 98 97 96 97 96 92 93 91 90 91 90 89 83 94 88 84 92 92 91 92 86 68 79 86 89 94 96 98 92 94 96 97 96 97 97 96 95 97 98
98 99 98 99 98 98 98 97 95 90 95 94 92 93 92 98 99 99 98 87 77 90 91 90 91 88 87 90 89 90 91 97 99 99 98 99 98 97 98 98 97 99 99
98 99 99 98 99 98 99 98 93 94 98 94 95 94 94 99 99 99 99 97 96 92 91 92 92 91 99 99 93 95 94 99 94 93 92 93 93 93 94 98 99 99 99
95 97 97 98 98 97 97 98 98 98 99 99 99 99 99 99 99 100 100 100 99 98 95 99 99 99 100 100 96 98 96 98 99 99 99 96 95 96 94 98 99 99 99
91 94 94 95 96 96 97 98 99 99 99 99 99 99 99 99 99 99 99 99 99 99 99 100 99 99 100 99 100 99 100 99 98 98 98 99 96 97 98 98 98 99 98
96 98 98 98 99 99 97 99 99 99 99 100 99 100 100 99 100 100 99 100 99 99 100 100 100 100 100 100 99 99 98 96 97 96 98 98 98 99 99 99 99 99 99
97 96 98 96 97 98 98 99 99 98 99 100 99 99 100 99 100 98 99 100 99 99 99 99 98 98 97 98 99 97 96 97 98 99 100 100 100 99 98 96 96 97 98
95 96 96 97 94 96 99 99 99 99 99 98 99 99 97 98 99 99 99 97 98 98 98 99 100 99 99 99 99 99 99 99 99 99 100 100 99 98 98 98 97 96 98
95 95 96 94 85 92 99 99 99 98 97 93 97 91 96 96 99 100 100 100 99 100 99 99 99 99 99 99 99 99 99 99 99 99 99 99 98 98 97 97 89 85 86
95 96 96 93 94 91 92 96 99 99 99 99 100 97 98 99 100 100 100 100 100 100 98 97 99 99 99 99 99 100 98 96 99 99 99 98 98 95 93 91 91 96 94
96 93 93 96 86 89 89 90 99 100 100 100 100 100 99 100 100 100 100 100 100 99 95 95 97 98 98 96 98 97 98 96 97 99 94 91 87 84 92 89 86 89 88
92 91 94 94 85 86 84 87 85 93 97 97 100 99 100 100 100 100 100 100 97 98 96 94 95 94 94 91 93 97 98 98 98 98 97 96 96 91 84 82 83 83 81
94 95 94 89 84 85 87 85 79 85 90 90 96 99 99 100 100 100 100 97 97 97 97 97 96 97 96 96 96 97 97 98 98 98 97 96 88 88 85 82 82 73 67
93 86 91 95 91 92 93 90 93 87 88 88 87 92 99 99 98 97 98 95 95 96 94 96 96 96 97 96 96 96 96 96 96 96 94 88 86 86 74 71 69 62 62
92 93 86 87 86 85 86 88 88 84 91 94 93 90 92 91 89 91 94 97 95 93 88 87 95 96 96 93 95 95 92 86 87 85 86 87 79 72 71 62 56 63 64
82 87 85 83 81 82 79 80 83 84 84 83 73 74 86 87 80 74 82 69 71 70 68 71 76 72 72 74 80 80 81 77 77 76 72 67 67 57 60 62 58 59 59
72 74 72 74 74 74 60 59 62 59 59 59 60 56 55 53 57 62 66 64 69 71 72 68 73 76 76 73 64 62 64 64 64 58 60 57 66 64 63 55 58 57 60
58 54 51 63 62 58 53 50 58 50 45 52 48 45 46 46 52 56 52 56 66 67 69 63 64 65 64 64 66 60 58 63 56 50 59 58 59 51 50 56 54 54 57
54 56 53 61 56 55 55 55 55 52 46 46 45 48 53 54 58 55 54 62 61 62 65 64 62 56 62 57 59 50 64 72 58 63 56 58 60 53 56 62 63 60 56
46 46 52 57 59 55 52 49 52 53 56 45 48 51 55 58 54 57 56 55 61 60 60 62 60 57 56 58 51 60 84 76 60 73 63 66 65 67 70 65 61 58 58

GFSGL_sfc_rhum_171.txt.gz
RH
89 75 76 81 79 82 86 92 89 91 87 90 91 92 91 90 89 94 94 94 94 95 91 94 92 90 93 92 93 94 97 97 93 82 93 95 94 96 98 99 97 98 98
77 87 78 77 81 81 81 90 92 93 93 91 93 95 96 92 94 94 92 91 94 95 92 90 92 90 94 93 98 97 98 97 93 90 89 94 93 93 95 98 99 96 99
93 90 90 86 80 79 77 74 93 92 95 94 95 96 96 94 94 94 93 92 94 94 95 92 89 86 91 97 97 98 97 98 96 95 94 96 96 98 98 98 100 99 98
94 93 94 93 93 92 91 90 90 91 92 97 96 95 94 96 94 93 95 95 94 92 90 92 92 92 93 94 95 96 96 97 98 98 98 97 98 95 97 98 100 100 99
94 92 89 89 95 96 98 99 97 97 96 96 97 97 97 97 82 92 91 95 95 95 94 94 93 93 90 93 97 96 96 98 98 98 98 98 98 98 97 97 98 100 99
96 95 92 92 96 97 96 97 98 98 97 98 98 97 96 93 91 94 91 92 95 96 96 95 95 92 93 95 97 96 96 96 98 99 98 98 97 97 97 98 98 100 100
97 97 97 98 98 98 96 97 96 97 98 98 96 98 98 95 88 85 91 96 96 95 95 96 93 84 91 93 96 98 99 99 98 97 98 99 97 98 99 99 99 99 99
98 99 99 99 99 99 99 99 99 98 97 99 98 97 97 97 98 94 90 93 93 94 94 94 95 94 95 94 96 96 95 98 99 99 99 98 98 98 98 99 98 99 100
99 99 98 97 98 98 98 99 99 98 97 97 96 96 94 94 100 100 100 97 96 95 95 95 96 96 95 100 96 96 97 98 97 97 96 94 93 93 94 99 100 100 100
98 99 98 98 99 99 98 98 97 97 99 99 99 98 96 99 100 100 100 100 99 99 99 99 100 100 100 100 99 97 99 99 99 99 98 96 95 97 94 98 98 99 99
97 98 99 98 98 97 97 98 96 99 99 99 99 99 99 99 99 100 100 100 100 100 100 100 100 100 100 100 100 99 99 99 99 99 99 99 96 97 99 98 99 99 99
99 98 99 99 100 99 98 98 98 99 99 99 99 100 99 100 100 100 100 100 100 100 100 100 100 100 100 100 100 100 100 99 99 99 100 100 100 100 100 100 99 99 99
98 98 99 98 99 99 99 99 100 100 100 100 100 100 100 100 100 100 100 100 100 100 100 100 100 100 100 100 100 100 100 100 100 99 100 100 100 100 99 99 98 98 99
97 99 99 99 98 98 99 99 99 99 100 99 100 100 100 100 100 100 100 100 99 99 99 100 100 100 100 99 99 99 100 100 99 100 100 100 99 98 97 97 98 98 99
96 99 97 94 97 98 98 99 96 98 99 99 98 99 99 100 100 100 100 100 100 100 100 99 99 100 99 100 100 100 100 100 100 99 99 99 99 97 97 97 97 97 98
98 99 98 98 99 99 98 99 99 99 99 100 100 99 99 100 100 100 100 100 100 100 96 98 100 100 99 99 99 100 100 99 99 99 99 98 98 98 97 97 96 96 96
98 98 99 99 99 100 100 99 99 99 100 100 100 100 100 100 100 100 100 100 100 100 99 99 98 98 99 99 99 99 99 99 98 99 98 98 98 97 96 96 96 96 95
97 100 99 98 98 99 98 95 94 99 99 100 100 100 100 100 100 100 100 100 98 98 98 99 99 99 99 99 98 99 100 100 99 99 98 98 97 96 95 93 94 92 93
94 98 99 99 96 98 98 98 98 97 98 99 99 100 99 100 100 100 100 98 98 98 98 99 98 99 99 98 99 99 99 99 99 99 98 98 98 94 91 91 93 91 90
96 95 97 96 97 98 98 98 98 98 98 96 92 93 98 99 100 99 99 98 98 98 98 98 98 98 98 98 99 99 99 99 99 98 98 98 96 94 90 90 86 85 82
98 98 96 98 97 97 97 97 97 98 94 95 97 95 100 98 98 98 98 98 98 98 98 98 98 98 98 98 98 98 98 98 97 97 97 96 96 95 94 94 85 82 78
98 97 98 97 98 97 97 97 97 97 97 96 96 97 100 97 97 97 97 97 97 97 97 98 98 98 98 98 97 97 96 95 96 96 95 95 95 95 84 73 72 70 72
98 97 97 97 97 96 97 96 97 97 96 97 97 97 98 97 96 95 91 84 84 90 96 97 97 98 98 97 97 95 95 94 90 90 91 90 84 80 72 70 69 66 71
96 96 96 96 96 96 96 95 84 95 94 93 94 92 92 95 88 84 77 73 84 84 85 88 88 86 89 92 96 96 94 89 85 89 80 79 75 78 73 67 66 64 66
81 83 90 92 89 88 90 85 69 65 68 77 84 83 80 77 76 69 65 70 80 81 79 80 81 76 72 73 78 76 77 80 76 84 77 68 66 68 65 71 72 70 66
72 69 69 73 81 83 83 77 68 71 62 60 70 75 72 63 56 56 60 67 70 79 76 78 74 71 71 70 69 75 84 87 80 83 69 72 68 68 73 69 66 67 67

GFSGL_sfc_rhum_174.txt.gz
RH
85 90 82 81 84 86 86 92 92 92 89 91 91 90 88 88 90 94 94 91 91 92 88 90 90 88 96 83 83 82 91 94 88 74 80 89 85 86 88 90 89 90 91
84 91 84 83 86 83 84 90 91 92 93 91 93 92 92 90 91 92 89 89 90 91 88 87 88 85 92 88 93 93 95 95 95 93 80 82 86 86 88 91 95 86 91
91 85 90 82 84 83 84 83 91 91 91 94 93 92 92 92 92 93 91 92 88 88 88 89 86 86 88 94 94 96 95 95 97 95 83 92 92 92 92 93 94 96 94
94 92 92 91 92 92 94 94 95 96 92 92 92 92 91 92 91 90 92 92 91 86 86 87 87 87 89 90 90 92 92 94 96 97 92 88 89 90 94 94 96 98 98
95 95 94 94 95 95 96 96 96 97 96 93 92 93 92 93 81 93 92 92 92 90 89 88 84 88 91 91 94 95 95 94 94 94 96 96 96 97 96 93 96 96 98
96 95 94 96 96 97 96 95 95 97 97 97 96 93 92 89 88 91 91 90 89 91 90 90 90 91 92 93 95 94 95 95 96 97 96 95 95 95 96 95 95 99 98
98 97 97 97 95 96 97 96 96 97 97 97 97 96 95 92 94 94 94 93 92 90 90 91 88 77 93 88 95 97 98 96 94 94 96 96 94 94 96 98 97 97 97
98 98 96 97 98 98 99 98 97 97 98 97 96 96 95 95 98 97 93 91 90 92 90 90 92 89 90 89 90 89 90 92 98 99 97 94 94 95 96 94 95 98 100
96 97 97 96 98 99 99 99 99 99 99 99 98 97 96 94 99 100 100 99 97 94 93 92 92 92 94 99 93 93 92 94 95 98 98 96 93 93 95 96 98 100 99
99 98 98 97 98 98 98 99 97 96 95 98 97 97 98 96 100 100 100 99 99 99 98 98 100 98 100 100 98 96 96 97 98 97 94 94 94 93 93 93 95 98 95
97 97 98 98 98 97 98 96 96 99 99 99 99 99 99 100 100 100 100 99 99 100 100 100 100 100 100 100 100 98 97 99 99 97 98 98 95 92 95 96 95 97 99
96 97 98 98 98 97 97 98 96 99 99 99 99 100 99 97 100 100 100 100 100 100 100 100 100 100 100 100 100 100 100 100 99 99 100 100 100 99 100 99 99 99 99
98 97 97 97 98 98 98 99 99 99 100 100 100 100 100 99 99 100 100 100 100 100 100 100 100 100 100 100 100 100 100 100 100 100 100 100 100 100 100 99 99 98 98
97 98 97 97 97 97 99 100 100 100 99 99 100 100 100 100 100 100 100 100 100 99 99 100 100 100 100 100 99 99 100 100 99 100 100 100 100 99 99 94 95 93 95
98 97 95 96 95 97 99 98 96 97 98 98 98 95 99 100 100 100 100 100 100 100 100 99 100 100 100 100 100 99 100 99 99 99 100 98 98 95 89 82 79 79 84
98 98 97 96 97 97 96 96 100 99 99 100 100 98 96 99 100 100 100 100 100 100 95 97 97 97 98 99 99 99 98 95 98 97 98 96 94 79 77 78 76 74 80
97 99 98 97 97 97 97 95 97 99 100 100 100 100 100 100 100 100 100 100 100 99 95 96 95 93 94 92 93 91 92 89 90 88 87 84 82 76 75 76 76 74 74
96 100 96 95 94 95 94 93 94 95 93 97 100 99 100 100 100 100 100 100 96 96 92 93 92 92 92 89 89 93 95 92 92 90 88 84 80 76 75 74 71 71 71
94 97 94 92 92 94 92 90 89 90 90 91 97 99 99 100 100 100 100 95 96 96 93 92 92 93 93 93 93 95 94 93 92 92 89 87 81 72 72 68 68 82 79
91 97 97 94 92 93 93 90 93 91 89 87 91 92 97 98 96 92 93 89 87 87 88 90 91 91 91 91 92 92 92 91 91 88 84 83 78 70 66 67 64 64 68
92 92 94 91 90 89 88 88 88 89 88 86 84 86 100 94 86 87 86 86 83 81 87 85 88 90 90 90 90 88 86 85 85 82 78 77 74 68 72 70 64 61 56
90 90 89 87 87 87 86 85 86 84 85 85 85 88 100 87 78 80 81 80 77 79 76 84 83 83 82 81 81 80 77 77 78 76 75 73 73 71 68 59 55 53 56
88 86 88 88 86 92 85 82 82 80 78 80 81 82 91 79 75 75 76 73 75 75 75 77 79 81 81 79 72 70 69 67 67 68 68 68 68 66 63 54 51 50 50
86 83 83 85 86 83 81 80 79 89 78 76 75 78 79 78 70 69 69 68 66 62 67 73 74 72 77 78 75 71 67 65 67 65 65 63 62 66 55 52 48 48 45
83 84 86 85 82 79 80 78 76 71 64 66 70 73 73 73 73 71 64 63 60 61 65 66 67 68 68 72 72 72 80 95 78 77 67 66 62 63 54 49 49 47 48
80 72 71 71 66 71 76 74 73 70 63 56 59 64 68 68 66 64 61 57 55 55 62 62 61 62 60 59 61 73 95 94 81 91 62 62 60 53 50 50 52 48 48